Photometre #354[Standard_N] Mount_Chacaltaya AOT

File : 20220920_354.hum

20/09/2022,11:02:42,TEMP=-4.2,BA=5.64,STAT.A=Abs.,ExtBa=12.43
20/09/2022,11:05:38,TEMP=-4.0,BA=5.64,STAT.A=Abs.,ExtBa=12.36
20/09/2022,11:08:36,TEMP=-3.9,BA=5.64,STAT.A=Abs.,ExtBa=12.33
20/09/2022,11:12:10,TEMP=-3.8,BA=5.40,STAT.A=Abs.,ExtBa=12.33
20/09/2022,11:16:36,TEMP=-3.8,BA=5.40,STAT.A=Abs.,ExtBa=12.33
20/09/2022,11:22:03,TEMP=-3.7,BA=5.64,STAT.A=Abs.,ExtBa=12.34
20/09/2022,11:28:55,TEMP=-3.6,BA=5.64,STAT.B=Abs.,ExtBa=12.36
20/09/2022,11:32:11,TEMP=-3.3,BA=5.48,STAT.A=Abs.,ExtBa=12.33
20/09/2022,11:35:50,TEMP=-3.1,BA=5.48,STAT.A=Abs.,ExtBa=12.31
20/09/2022,11:39:56,TEMP=-3.0,BA=5.48,STAT.A=Abs.,ExtBa=12.32
20/09/2022,11:44:35,TEMP=-3.0,BA=5.56,STAT.A=Abs.,ExtBa=12.33
20/09/2022,11:49:53,TEMP=-2.9,BA=5.56,STAT.C=Abs.,ExtBa=12.33
20/09/2022,12:01:46,TEMP=-2.5,BA=5.60,STAT.A=Abs.,ExtBa=12.24
20/09/2022,12:04:45,TEMP=-2.4,BA=5.60,STAT.A=Abs.,ExtBa=12.28
20/09/2022,12:11:36,TEMP=-2.5,BA=5.64,STAT.A=Abs.,ExtBa=12.35
20/09/2022,12:21:49,TEMP=-2.0,BA=5.64,STAT.A=Abs.,ExtBa=12.64
20/09/2022,12:34:23,TEMP=-0.9,BA=5.64,STAT.B=Abs.,ExtBa=12.95
20/09/2022,13:00:12,TEMP=1.9,BA=5.64,STAT.B=Abs.,ExtBa=13.55
20/09/2022,13:11:43,TEMP=3.0,BA=5.64,STAT.D=Abs.,ExtBa=13.36
20/09/2022,13:26:45,TEMP=3.6,BA=5.68,STAT.F,ExtBa=13.67
20/09/2022,13:41:44,TEMP=4.8,BA=5.72,STAT.D=Abs.,ExtBa=13.61
20/09/2022,13:56:44,TEMP=5.6,BA=5.72,STAT.D=Abs.,ExtBa=13.74
20/09/2022,14:11:44,TEMP=6.0,BA=5.68,STAT.D=Abs.,ExtBa=13.78
20/09/2022,14:26:46,TEMP=6.6,BA=5.68,STAT.F,ExtBa=13.83
20/09/2022,14:41:44,TEMP=6.7,BA=5.68,STAT.D=Abs.,ExtBa=13.88
20/09/2022,14:56:44,TEMP=7.1,BA=5.68,STAT.D=Abs.,ExtBa=13.99
20/09/2022,15:11:44,TEMP=7.6,BA=5.64,STAT.D=Abs.,ExtBa=14.13
20/09/2022,15:26:46,TEMP=7.1,BA=5.64,STAT.F,ExtBa=14.28
20/09/2022,15:41:45,TEMP=7.3,BA=5.64,STAT.D=Abs.,ExtBa=14.36
20/09/2022,15:56:45,TEMP=7.7,BA=5.64,STAT.D=Abs.,ExtBa=14.38
20/09/2022,16:11:45,TEMP=8.0,BA=5.64,STAT.D=Abs.,ExtBa=14.37
20/09/2022,16:26:47,TEMP=8.0,BA=5.64,STAT.F,ExtBa=14.37
20/09/2022,16:41:45,TEMP=9.1,BA=5.64,STAT.D=Abs.,ExtBa=14.37
20/09/2022,16:56:45,TEMP=8.4,BA=5.64,STAT.D=Abs.,ExtBa=14.34
20/09/2022,17:11:45,TEMP=8.1,BA=5.64,STAT.D=Abs.,ExtBa=14.20
20/09/2022,17:26:46,TEMP=8.1,BA=5.64,STAT.F,ExtBa=14.19
20/09/2022,17:44:08,TEMP=9.0,BA=5.64,STAT.D=Abs.,ExtBa=14.17
20/09/2022,17:58:55,TEMP=9.6,BA=5.64,STAT.D=Abs.,ExtBa=14.26
20/09/2022,18:11:44,TEMP=9.0,BA=5.64,STAT.D=Abs.,ExtBa=14.33
20/09/2022,18:26:46,TEMP=9.2,BA=5.64,STAT.F,ExtBa=14.30
20/09/2022,18:41:44,TEMP=9.6,BA=5.64,STAT.D=Abs.,ExtBa=14.29
20/09/2022,18:56:44,TEMP=10.1,BA=5.64,STAT.D=Abs.,ExtBa=14.26
20/09/2022,19:11:44,TEMP=10.5,BA=5.64,STAT.D=Abs.,ExtBa=14.24
20/09/2022,19:26:45,TEMP=10.6,BA=5.64,STAT.F,ExtBa=14.20
20/09/2022,19:41:43,TEMP=10.1,BA=5.64,STAT.D=Abs.,ExtBa=13.96
20/09/2022,19:53:18,TEMP=10.0,BA=5.64,STAT.B=Abs.,ExtBa=14.14
20/09/2022,20:19:05,TEMP=10.3,BA=5.64,STAT.B=Abs.,ExtBa=14.08
20/09/2022,20:31:40,TEMP=9.8,BA=5.64,STAT.A=Abs.,ExtBa=13.63
20/09/2022,20:41:52,TEMP=9.5,BA=5.64,STAT.A=Abs.,ExtBa=13.87
20/09/2022,20:50:20,TEMP=9.5,BA=5.64,STAT.A=Abs.,ExtBa=13.89
20/09/2022,20:57:28,TEMP=9.6,BA=5.64,STAT.A=Abs.,ExtBa=13.85
20/09/2022,21:03:35,TEMP=9.1,BA=5.64,STAT.C=Abs.,ExtBa=13.75
20/09/2022,21:15:28,TEMP=8.6,BA=5.60,STAT.A=Abs.,ExtBa=12.68
20/09/2022,21:18:28,TEMP=8.7,BA=5.60,STAT.A=Abs.,ExtBa=12.72
20/09/2022,21:21:30,TEMP=8.7,BA=5.60,STAT.A=Abs.,ExtBa=12.73
20/09/2022,21:24:32,TEMP=8.7,BA=5.60,STAT.A=Abs.,ExtBa=12.72
20/09/2022,21:27:31,TEMP=8.5,BA=5.60,STAT.B=Abs.,ExtBa=12.71
20/09/2022,21:35:34,TEMP=8.3,BA=5.56,STAT.A=Abs.,ExtBa=12.67
20/09/2022,21:39:37,TEMP=8.2,BA=5.56,STAT.A=Abs.,ExtBa=12.70
20/09/2022,21:42:35,TEMP=8.2,BA=5.56,STAT.A=Abs.,ExtBa=12.67
20/09/2022,21:45:33,TEMP=8.1,BA=5.56,STAT.A=Abs.,ExtBa=12.68
20/09/2022,21:48:30,TEMP=8.0,BA=5.56,STAT.A=Abs.,ExtBa=12.67
20/09/2022,21:51:36,TEMP=7.7,BA=5.52,STAT.A=Abs.,ExtBa=12.66